Time,TemperatureF,DewpointF,PressureIn,WindDirection,WindDirectionDegrees,WindSpeedMPH,WindSpeedGustMPH,Humidity,HourlyPrecipIn,Conditions,Clouds,dailyrainin,SolarRadiationWatts/m^2,SoftwareType,DateUTC
2013-03-06 00:02:00,42.0,10.0,-100.00,NNE,20,6.0,10.0,27,0.00,,,0.00,1.000000,,2013-03-06 06:02:00,
2013-03-06 00:32:00,39.0,8.0,-100.00,NE,52,3.0,8.0,27,0.00,,,0.00,1.000000,,2013-03-06 06:32:00,
2013-03-06 00:42:00,39.0,8.0,-100.00,NE,52,3.0,8.0,27,0.00,,,0.00,1.000000,,2013-03-06 06:42:00,
2013-03-06 00:52:00,39.0,8.0,-100.00,NE,52,3.0,8.0,27,0.00,,,0.00,1.000000,,2013-03-06 06:52:00,
2013-03-06 01:01:00,39.0,8.0,-100.00,NE,52,3.0,8.0,27,0.00,,,0.00,1.000000,,2013-03-06 07:01:00,
2013-03-06 01:32:00,37.0,9.0,-100.00,ESE,106,2.0,6.0,31,0.00,,,0.00,1.000000,,2013-03-06 07:32:00,
2013-03-06 01:42:00,37.0,9.0,-100.00,ESE,106,2.0,6.0,31,0.00,,,0.00,1.000000,,2013-03-06 07:42:00,
2013-03-06 01:52:00,37.0,9.0,-100.00,ESE,106,2.0,6.0,31,0.00,,,0.00,1.000000,,2013-03-06 07:52:00,
2013-03-06 02:01:00,37.0,9.0,-100.00,ESE,106,2.0,6.0,31,0.00,,,0.00,1.000000,,2013-03-06 08:01:00,
2013-03-06 02:32:00,32.0,12.0,-100.00,SE,124,0.0,3.0,42,0.00,,,-99.99,1.000000,,2013-03-06 08:32:00,
2013-03-06 02:42:00,32.0,12.0,-100.00,SE,124,0.0,3.0,42,0.00,,,-99.99,1.000000,,2013-03-06 08:42:00,
2013-03-06 02:52:00,32.0,12.0,-100.00,SE,124,0.0,3.0,42,0.00,,,-99.99,1.000000,,2013-03-06 08:52:00,
2013-03-06 03:01:00,32.0,12.0,-100.00,SE,124,0.0,3.0,42,0.00,,,-99.99,1.000000,,2013-03-06 09:01:00,
2013-03-06 03:32:00,29.0,11.0,-100.00,South,174,2.0,4.0,46,0.00,,,0.00,1.000000,,2013-03-06 09:32:00,
2013-03-06 03:42:00,29.0,11.0,-100.00,South,174,2.0,4.0,46,0.00,,,0.00,1.000000,,2013-03-06 09:42:00,
2013-03-06 03:52:00,29.0,11.0,-100.00,South,174,2.0,4.0,46,0.00,,,0.00,1.000000,,2013-03-06 09:52:00,
2013-03-06 04:01:00,29.0,11.0,-100.00,South,174,2.0,4.0,46,0.00,,,0.00,1.000000,,2013-03-06 10:01:00,
2013-03-06 04:32:00,31.0,14.0,-100.00,ENE,77,3.0,4.0,49,0.00,,,0.00,1.000000,,2013-03-06 10:32:00,
2013-03-06 04:42:00,31.0,14.0,-100.00,ENE,77,3.0,4.0,49,0.00,,,0.00,1.000000,,2013-03-06 10:42:00,
2013-03-06 04:52:00,31.0,14.0,-100.00,ENE,77,3.0,4.0,49,0.00,,,0.00,1.000000,,2013-03-06 10:52:00,
2013-03-06 05:02:00,31.0,14.0,-100.00,ENE,77,3.0,4.0,49,0.00,,,0.00,1.000000,,2013-03-06 11:02:00,
2013-03-06 05:32:00,30.0,8.0,-100.00,SE,136,1.0,5.0,38,0.00,,,0.00,1.000000,,2013-03-06 11:32:00,
2013-03-06 05:42:00,30.0,8.0,-100.00,SE,136,1.0,5.0,38,0.00,,,0.00,1.000000,,2013-03-06 11:42:00,
2013-03-06 05:52:00,30.0,8.0,-100.00,SE,136,1.0,5.0,38,0.00,,,0.00,1.000000,,2013-03-06 11:52:00,
2013-03-06 06:02:00,30.0,8.0,-100.00,SE,136,1.0,5.0,38,0.00,,,0.00,1.000000,,2013-03-06 12:02:00,
2013-03-06 06:33:00,26.0,14.0,-100.00,SE,136,2.0,4.0,61,0.00,,,0.00,1.000000,,2013-03-06 12:33:00,
2013-03-06 06:43:00,26.0,14.0,-100.00,SE,136,2.0,4.0,61,0.00,,,0.00,1.000000,,2013-03-06 12:43:00,
2013-03-06 06:52:00,26.0,14.0,-100.00,SE,136,2.0,4.0,61,0.00,,,0.00,1.000000,,2013-03-06 12:52:00,
2013-03-06 07:02:00,26.0,14.0,-100.00,SE,136,2.0,4.0,61,0.00,,,0.00,1.000000,,2013-03-06 13:02:00,
2013-03-06 07:32:00,27.0,9.0,-100.00,South,180,1.0,4.0,46,0.00,,,0.00,2.000000,,2013-03-06 13:32:00,
2013-03-06 07:42:00,27.0,9.0,-100.00,South,180,1.0,4.0,46,0.00,,,0.00,2.000000,,2013-03-06 13:42:00,
2013-03-06 07:52:00,27.0,9.0,-100.00,South,180,1.0,4.0,46,0.00,,,0.00,2.000000,,2013-03-06 13:52:00,
2013-03-06 08:01:00,27.0,9.0,-100.00,South,180,1.0,4.0,46,0.00,,,0.00,2.000000,,2013-03-06 14:01:00,
2013-03-06 08:32:00,28.0,16.0,-100.00,SE,141,2.0,3.0,61,0.00,,,0.00,52.000000,,2013-03-06 14:32:00,
2013-03-06 08:42:00,28.0,16.0,-100.00,SE,141,2.0,3.0,61,0.00,,,0.00,52.000000,,2013-03-06 14:42:00,
2013-03-06 08:52:00,28.0,16.0,-100.00,SE,141,2.0,3.0,61,0.00,,,0.00,52.000000,,2013-03-06 14:52:00,
2013-03-06 09:02:00,28.0,16.0,-100.00,SE,141,2.0,3.0,61,0.00,,,0.00,52.000000,,2013-03-06 15:02:00,
2013-03-06 09:32:00,41.0,20.0,-100.00,SE,137,4.0,6.0,42,0.00,,,0.00,276.000000,,2013-03-06 15:32:00,
2013-03-06 09:42:00,41.0,20.0,-100.00,SE,137,4.0,6.0,42,0.00,,,0.00,276.000000,,2013-03-06 15:42:00,
2013-03-06 09:52:00,41.0,20.0,-100.00,SE,137,4.0,6.0,42,0.00,,,0.00,276.000000,,2013-03-06 15:52:00,
2013-03-06 10:01:00,41.0,20.0,-100.00,SE,137,4.0,6.0,42,0.00,,,0.00,276.000000,,2013-03-06 16:01:00,
2013-03-06 10:32:00,46.0,15.0,-100.00,ESE,109,12.0,17.0,28,0.00,,,0.00,360.000000,,2013-03-06 16:32:00,
2013-03-06 10:42:00,46.0,15.0,-100.00,ESE,109,12.0,17.0,28,0.00,,,0.00,360.000000,,2013-03-06 16:42:00,
2013-03-06 10:52:00,46.0,15.0,-100.00,ESE,109,12.0,17.0,28,0.00,,,0.00,360.000000,,2013-03-06 16:52:00,
2013-03-06 11:01:00,46.0,15.0,-100.00,ESE,109,12.0,17.0,28,0.00,,,0.00,360.000000,,2013-03-06 17:01:00,
2013-03-06 11:32:00,52.0,13.0,-100.00,ESE,118,11.0,18.0,21,0.00,,,0.00,629.000000,,2013-03-06 17:32:00,
2013-03-06 11:42:00,52.0,13.0,-100.00,ESE,118,11.0,18.0,21,0.00,,,0.00,629.000000,,2013-03-06 17:42:00,
2013-03-06 11:53:00,52.0,13.0,-100.00,ESE,118,11.0,18.0,21,0.00,,,0.00,629.000000,,2013-03-06 17:53:00,
2013-03-06 12:02:00,52.0,13.0,-100.00,ESE,118,11.0,18.0,21,0.00,,,0.00,629.000000,,2013-03-06 18:02:00,
2013-03-06 12:32:00,56.0,9.0,-100.00,ESE,106,12.0,18.0,15,0.00,,,0.00,675.000000,,2013-03-06 18:32:00,
2013-03-06 12:42:00,56.0,9.0,-100.00,ESE,106,12.0,18.0,15,0.00,,,0.00,675.000000,,2013-03-06 18:42:00,
2013-03-06 12:53:00,56.0,9.0,-100.00,ESE,106,12.0,18.0,15,0.00,,,0.00,675.000000,,2013-03-06 18:53:00,
2013-03-06 13:02:00,56.0,9.0,-100.00,ESE,106,12.0,18.0,15,0.00,,,0.00,675.000000,,2013-03-06 19:02:00,
2013-03-06 13:32:00,59.0,6.0,-100.00,ESE,108,13.0,21.0,12,0.00,,,0.00,759.000000,,2013-03-06 19:32:00,
2013-03-06 13:43:00,59.0,6.0,-100.00,ESE,108,13.0,21.0,12,0.00,,,0.00,759.000000,,2013-03-06 19:43:00,
2013-03-06 13:53:00,59.0,6.0,-100.00,ESE,108,13.0,21.0,12,0.00,,,0.00,759.000000,,2013-03-06 19:53:00,
2013-03-06 14:02:00,59.0,6.0,-100.00,ESE,108,13.0,21.0,12,0.00,,,0.00,759.000000,,2013-03-06 20:02:00,
2013-03-06 14:33:00,62.0,9.0,-100.00,ESE,119,10.0,25.0,12,0.00,,,0.00,630.000000,,2013-03-06 20:33:00,
2013-03-06 14:43:00,62.0,9.0,-100.00,ESE,119,10.0,25.0,12,0.00,,,0.00,630.000000,,2013-03-06 20:43:00,
2013-03-06 14:53:00,62.0,9.0,-100.00,ESE,119,10.0,25.0,12,0.00,,,0.00,630.000000,,2013-03-06 20:53:00,
2013-03-06 15:02:00,62.0,9.0,-100.00,ESE,119,10.0,25.0,12,0.00,,,0.00,630.000000,,2013-03-06 21:02:00,
2013-03-06 15:33:00,64.0,6.0,-100.00,SSE,155,10.0,18.0,10,0.00,,,0.00,506.000000,,2013-03-06 21:33:00,
2013-03-06 15:42:00,64.0,6.0,-100.00,SSE,155,10.0,18.0,10,0.00,,,0.00,506.000000,,2013-03-06 21:42:00,
2013-03-06 15:52:00,64.0,6.0,-100.00,SSE,155,10.0,18.0,10,0.00,,,0.00,506.000000,,2013-03-06 21:52:00,
2013-03-06 16:01:00,64.0,6.0,-100.00,SSE,155,10.0,18.0,10,0.00,,,0.00,506.000000,,2013-03-06 22:01:00,
2013-03-06 16:32:00,65.0,7.0,-100.00,SE,127,12.0,18.0,10,0.00,,,0.00,467.000000,,2013-03-06 22:32:00,
2013-03-06 16:42:00,65.0,7.0,-100.00,SE,127,12.0,18.0,10,0.00,,,0.00,467.000000,,2013-03-06 22:42:00,
2013-03-06 16:52:00,65.0,7.0,-100.00,SE,127,12.0,18.0,10,0.00,,,0.00,467.000000,,2013-03-06 22:52:00,
2013-03-06 17:01:00,65.0,7.0,-100.00,SE,127,12.0,18.0,10,0.00,,,0.00,467.000000,,2013-03-06 23:01:00,
2013-03-06 17:32:00,64.0,8.0,-100.00,SE,139,11.0,18.0,11,0.00,,,0.00,376.000000,,2013-03-06 23:32:00,
2013-03-06 17:42:00,64.0,8.0,-100.00,SE,139,11.0,18.0,11,0.00,,,0.00,376.000000,,2013-03-06 23:42:00,
2013-03-06 17:52:00,64.0,8.0,-100.00,SE,139,11.0,18.0,11,0.00,,,0.00,376.000000,,2013-03-06 23:52:00,
2013-03-06 18:01:00,64.0,8.0,-100.00,SE,139,11.0,18.0,11,0.00,,,0.00,376.000000,,2013-03-07 00:01:00,
2013-03-06 18:32:00,61.0,11.0,-100.00,SE,125,10.0,16.0,14,0.00,,,0.00,127.000000,,2013-03-07 00:32:00,
2013-03-06 18:42:00,61.0,11.0,-100.00,SE,125,10.0,16.0,14,0.00,,,0.00,127.000000,,2013-03-07 00:42:00,
2013-03-06 18:52:00,61.0,11.0,-100.00,SE,125,10.0,16.0,14,0.00,,,0.00,127.000000,,2013-03-07 00:52:00,
2013-03-06 19:01:00,61.0,11.0,-100.00,SE,125,10.0,16.0,14,0.00,,,0.00,127.000000,,2013-03-07 01:01:00,
2013-03-06 19:32:00,57.0,11.0,-100.00,East,95,8.0,14.0,16,0.00,,,0.00,12.000000,,2013-03-07 01:32:00,
2013-03-06 19:42:00,57.0,11.0,-100.00,East,95,8.0,14.0,16,0.00,,,0.00,12.000000,,2013-03-07 01:42:00,
2013-03-06 19:52:00,57.0,11.0,-100.00,East,95,8.0,14.0,16,0.00,,,0.00,12.000000,,2013-03-07 01:52:00,
2013-03-06 20:01:00,57.0,11.0,-100.00,East,95,8.0,14.0,16,0.00,,,0.00,12.000000,,2013-03-07 02:01:00,
2013-03-06 20:32:00,54.0,13.0,-100.00,East,98,9.0,11.0,19,0.00,,,0.00,1.000000,,2013-03-07 02:32:00,
2013-03-06 20:42:00,54.0,13.0,-100.00,East,98,9.0,11.0,19,0.00,,,0.00,1.000000,,2013-03-07 02:42:00,
2013-03-06 20:52:00,54.0,13.0,-100.00,East,98,9.0,11.0,19,0.00,,,0.00,1.000000,,2013-03-07 02:52:00,
2013-03-06 21:02:00,54.0,13.0,-100.00,East,98,9.0,11.0,19,0.00,,,0.00,1.000000,,2013-03-07 03:02:00,
2013-03-06 21:32:00,51.0,12.0,-100.00,SE,129,8.0,12.0,21,0.00,,,0.00,1.000000,,2013-03-07 03:32:00,
2013-03-06 21:42:00,51.0,12.0,-100.00,SE,129,8.0,12.0,21,0.00,,,0.00,1.000000,,2013-03-07 03:42:00,
2013-03-06 21:52:00,51.0,12.0,-100.00,SE,129,8.0,12.0,21,0.00,,,0.00,1.000000,,2013-03-07 03:52:00,
2013-03-06 22:01:00,51.0,12.0,-100.00,SE,129,8.0,12.0,21,0.00,,,0.00,1.000000,,2013-03-07 04:01:00,
2013-03-06 22:32:00,47.0,13.0,-100.00,SE,138,7.0,9.0,25,0.00,,,0.00,1.000000,,2013-03-07 04:32:00,
2013-03-06 22:42:00,47.0,13.0,-100.00,SE,138,7.0,9.0,25,0.00,,,0.00,1.000000,,2013-03-07 04:42:00,
2013-03-06 22:52:00,47.0,13.0,-100.00,SE,138,7.0,9.0,25,0.00,,,0.00,1.000000,,2013-03-07 04:52:00,
2013-03-06 23:02:00,47.0,13.0,-100.00,SE,138,7.0,9.0,25,0.00,,,0.00,1.000000,,2013-03-07 05:02:00,
2013-03-06 23:32:00,45.0,13.0,-100.00,SE,144,6.0,9.0,27,0.00,,,0.00,1.000000,,2013-03-07 05:32:00,
2013-03-06 23:42:00,45.0,13.0,-100.00,SE,144,6.0,9.0,27,0.00,,,0.00,1.000000,,2013-03-07 05:42:00,
2013-03-06 23:52:00,45.0,13.0,-100.00,SE,144,6.0,9.0,27,0.00,,,0.00,1.000000,,2013-03-07 05:52:00,